Location: Molino di Ancona
(43.6167°N, 13.3667°E)
Time: 03:31:11
(UTC+00:00)

Meteor 1-5 Rocket - Pass Details

Date: 15 December 2019
Orbit: 788 x 916 km, 81.2° (Epoch: 27 January)

Event Time Altitude Azimuth Distance (km) Brightness Sun altitude
Rises 05:07:09 0° 199° (SSW) 3,532 7.4 -14.8°
Reaches altitude 10° 05:09:40 10° 202° (SSW) 2,586 6.7 -14.4°
Maximum altitude 05:15:30 61° 283° (WNW) 1,009 4.3 -13.4°
Drops below altitude 10° 05:21:15 10° 4° (N) 2,539 6.5 -12.4°
Sets 05:23:42 0° 8° (N) 3,462 7.3 -12.0°
